Weather in Dolisie

Congo     4°11′57″S   12°40′06″E
temp.,
°C
wind,
m/s
gust,
m/s
humid.,
%
clouds,
%
prec.,
mm/h
press.,
hPa
HPBL,
m
1 august, sun
sun101:00+19sw24917 0.0 1014130
04:00+18sw239624 0.0 1015131
07:00+19sw238993 0.0 1017273
10:00+26sw11568 0.0 1017860
13:00+31sw21395 0.0 10141592
16:00+32wsw323625 0.0 10112186
19:00+24sw5106518 0.0 1014468
22:00+21sw410795 0.0 1016354
2 august, mon
mon201:00+20sw288886 0.0 1016397
04:00+20sw2682100 0.0 1016571
07:00+21wsw257999 0.0 1018553
10:00+23wsw236683 0.0 1018931
13:00+31wsw22395 0.0 10141500
16:00+31sw323579 0.0 10121926
19:00+26sw4852100 0.0 1014421
22:00+21sw3674100 0.0 1016210
3 august, tue
tue301:00+20sw368385 0.0 1015230
04:00+18ssw269598 0.0 1015296
07:00+19sw258294 0.0 1017530
10:00+25wsw235434 0.0 1018843
13:00+30sw333555 0.0 10141516
16:00+32wsw333267 0.0 10121891
19:00+24sw611595 0.0 1014494
22:00+20sw498077 0.0 1017323
4 august, wed
wed401:00+19sw288644 0.0 1016407
04:00+17wsw129471 0.0 101695
07:00+18sw129198 0.0 1018186
10:00+25wsw23520 0.0 1019998
13:00+31wsw33323 0.0 10151591
16:00+31sw33305 0.0 10121857
19:00+24sw510562 0.0 1015428
22:00+20sw410700 0.0 1017351
5 august, thu
thu501:00+19sw310834 0.0 1017408
04:00+18sw389044 0.0 1017462
07:00+19sw268197 0.0 1019638
10:00+23wsw34619 0.0 1020898
13:00+30wsw34350 0.0 10161486
16:00+30wsw44310 0.0 10141710
19:00+23wsw59520 0.0 1016559
22:00+19sw410760 0.0 1018380